Weather History for Jacksonville, IL

Change the Weather History Date:

Tuesday, April 1, 2014

  Actual Average (KSPI) Record (KSPI)
Temperature  
Mean Temperature 44 °F 48 °F  
Max Temperature 56 °F 59 °F 88 °F (2012)
Min Temperature 32 °F 38 °F 19 °F (1899)
Degree Days  
Heating Degree Days 21 17  
Month to date heating degree days 17  
Since 1 July heating degree days 4999  
Cooling Degree Days 0 0  
Month to date cooling degree days 0  
Year to date cooling degree days 2  
Moisture  
Dew Point 30 °F    
Average Humidity 55    
Maximum Humidity 84    
Minimum Humidity 36    
Precipitation  
Precipitation 0.09 in 0.10 in 0.92 in (1970)
Month to date precipitation 0.10  
Year to date precipitation 6.36  
Snow  
Snow 0.00 in 0.00 in 0.40 in (1993)
Month to date snowfall 0.0  
Since 1 July snowfall 20.6  
Snow Depth -    
Sea Level Pressure  
Sea Level Pressure 30.01 in    
Wind  
Wind Speed 12 mph (West)    
Max Wind Speed 23 mph    
Max Gust Speed 31 mph    
Visibility 10 miles    
Events Rain    
T = Trace of Precipitation, MM = Missing Value Source: NWS Daily Summary

Daily Weather History Graph

Daily Weather History Graph

Search for Another Location

Airport:

Trip Planner

Search our weather history database for the weather conditions in past years. The results will help you decide how hot, cold, wet, or windy it might be!

Date:

Astronomy

Apr. 01, 2014 Rise Set
Actual Time 6:45 AM CDT 7:25 PM CDT
Civil Twilight 6:17 AM CDT 7:52 PM CDT
Nautical Twilight 5:45 AM CDT 8:24 PM CDT
Astronomical Twilight 5:12 AM CDT 8:57 PM CDT
Moon 7:48 AM CDT (4/1) 9:47 PM CDT (4/1)
Length of Visible Light 13h 34m
Length of Day
12h 40m
Waxing Crescent, 5% of the Moon is Illuminated
Apr 1
Waxing Crescent
Apr 7
First Quarter
Apr 15
Full
Apr 22
Last Quarter
Apr 29
New

Hourly Weather History & Observations

Time (CDT) Temp. Windchill Dew Point Humidity Pressure Visibility Wind Dir Wind Speed Gust Speed Precip Events Conditions
12:15 AM 56.8 °F - 44.4 °F 63% 29.81 in 10.0 mi SW 12.7 mph 19.6 mph N/A   Clear
12:35 AM 55.9 °F - 44.8 °F 66% 29.81 in 10.0 mi WSW 10.4 mph 18.4 mph N/A   Clear
12:55 AM 55.8 °F - 45.0 °F 67% 29.81 in 10.0 mi WSW 11.5 mph 16.1 mph N/A   Clear
1:15 AM 50.9 °F - 41.7 °F 71% 29.82 in 10.0 mi West 10.4 mph - N/A   Clear
1:35 AM 47.1 °F - 39.7 °F 76% 29.83 in 10.0 mi West 9.2 mph - N/A   Clear
1:55 AM 47.1 °F - 40.3 °F 77% 29.84 in 10.0 mi West 8.1 mph - N/A   Mostly Cloudy
2:15 AM 50.0 °F - 37.2 °F 62% 29.85 in 10.0 mi West 15.0 mph - N/A   Mostly Cloudy
2:35 AM 47.3 °F - 37.6 °F 69% 29.86 in 10.0 mi WNW 13.8 mph 19.6 mph N/A   Clear
2:55 AM 44.8 °F 39.9 °F 35.8 °F 71% 29.86 in 10.0 mi West 9.2 mph - N/A   Clear
3:15 AM 45.5 °F 40.8 °F 34.3 °F 65% 29.87 in 10.0 mi West 9.2 mph - N/A   Clear
3:35 AM 44.6 °F 38.1 °F 30.2 °F 57% 29.87 in 10.0 mi West 13.8 mph 20.7 mph N/A   Clear
3:55 AM 43.3 °F 36.8 °F 29.3 °F 58% 29.88 in 10.0 mi West 12.7 mph 19.6 mph N/A   Clear
4:15 AM 42.3 °F 32.8 °F 28.0 °F 57% 29.89 in 10.0 mi West 23.0 mph 29.9 mph N/A   Clear
4:35 AM 40.1 °F 32.0 °F 25.2 °F 55% 29.90 in 10.0 mi West 15.0 mph 26.5 mph N/A   Clear
4:55 AM 36.9 °F 27.1 °F 24.6 °F 61% 29.92 in 10.0 mi West 17.3 mph - N/A   Clear
5:15 AM 35.6 °F 24.2 °F 23.5 °F 62% 29.93 in 10.0 mi West 21.9 mph 28.8 mph N/A   Clear
5:35 AM 34.0 °F 21.8 °F 20.3 °F 57% 29.94 in 10.0 mi West 23.0 mph 31.1 mph N/A   Clear
5:55 AM 32.9 °F 22.8 °F 21.0 °F 62% 29.95 in 10.0 mi West 15.0 mph 21.9 mph N/A   Clear
6:15 AM 32.9 °F 23.2 °F 20.8 °F 61% 29.96 in 10.0 mi West 13.8 mph 25.3 mph N/A   Clear
6:35 AM 32.9 °F 24.1 °F 20.8 °F 61% 29.97 in 10.0 mi West 11.5 mph 19.6 mph N/A   Clear
6:55 AM 32.5 °F 23.2 °F 21.0 °F 63% 29.99 in 10.0 mi West 12.7 mph 21.9 mph N/A   Clear
7:15 AM 32.9 °F 24.7 °F 21.2 °F 62% 30.00 in 10.0 mi West 10.4 mph - N/A   Clear
7:35 AM 33.3 °F 23.7 °F 21.9 °F 63% 30.02 in 10.0 mi West 13.8 mph 17.3 mph N/A   Clear
7:55 AM 33.8 °F 24.8 °F 21.9 °F 62% 30.02 in 10.0 mi West 12.7 mph - N/A   Clear
8:15 AM 34.0 °F 23.0 °F 22.5 °F 63% 30.02 in 10.0 mi West 18.4 mph 25.3 mph N/A   Clear
8:35 AM 34.9 °F 25.3 °F 22.6 °F 61% 30.02 in 10.0 mi West 15.0 mph 24.2 mph N/A   Clear
8:55 AM 35.6 °F 24.5 °F 22.5 °F 59% 30.02 in 10.0 mi West 20.7 mph 25.3 mph N/A   Clear
9:15 AM 36.9 °F 27.1 °F 23.0 °F 57% 30.03 in 10.0 mi West 17.3 mph 21.9 mph N/A   Clear
9:35 AM 38.3 °F 30.1 °F 23.2 °F 55% 30.04 in 10.0 mi West 13.8 mph 20.7 mph N/A   Clear
9:55 AM 39.2 °F 31.2 °F 23.4 °F 53% 30.05 in 10.0 mi West 13.8 mph - N/A   Clear
10:15 AM 40.6 °F 32.7 °F 23.7 °F 51% 30.06 in 10.0 mi WSW 15.0 mph 21.9 mph N/A   Clear
10:35 AM 41.5 °F 34.6 °F 24.4 °F 51% 30.06 in 10.0 mi WSW 12.7 mph 21.9 mph N/A   Clear
10:55 AM 42.3 °F 35.1 °F 24.3 °F 49% 30.07 in 10.0 mi WSW 13.8 mph 23.0 mph N/A   Clear
11:15 AM 43.9 °F 36.5 °F 25.0 °F 47% 30.07 in 10.0 mi WSW 16.1 mph 20.7 mph N/A   Clear
11:35 AM 44.6 °F 37.4 °F 25.2 °F 46% 30.08 in 10.0 mi WSW 16.1 mph 24.2 mph N/A   Clear
11:55 AM 46.0 °F 39.0 °F 25.5 °F 45% 30.07 in 10.0 mi WSW 17.3 mph 23.0 mph N/A   Clear
12:15 PM 47.7 °F - 26.4 °F 44% 30.07 in 10.0 mi West 17.3 mph 25.3 mph N/A   Clear
12:35 PM 49.1 °F - 26.4 °F 41% 30.08 in 10.0 mi West 15.0 mph 19.6 mph N/A   Clear
12:55 PM 50.4 °F - 27.1 °F 41% 30.08 in 10.0 mi WSW 13.8 mph 24.2 mph N/A   Clear
1:15 PM 51.3 °F - 26.8 °F 39% 30.08 in 10.0 mi West 17.3 mph 25.3 mph N/A   Clear
1:35 PM 52.2 °F - 27.1 °F 38% 30.07 in 10.0 mi West 17.3 mph 21.9 mph N/A   Clear
1:55 PM 52.9 °F - 27.3 °F 37% 30.08 in 10.0 mi WNW 12.7 mph 18.4 mph N/A   Clear
2:15 PM 53.6 °F - 28.2 °F 38% 30.07 in 10.0 mi West 12.7 mph 18.4 mph N/A   Clear
2:35 PM 52.5 °F - 27.5 °F 38% 30.06 in 10.0 mi West 9.2 mph 17.3 mph N/A   Clear
2:55 PM 52.2 °F - 27.7 °F 39% 30.06 in 10.0 mi WNW 9.2 mph - N/A   Clear
3:15 PM 52.5 °F - 28.6 °F 40% 30.05 in 10.0 mi WNW 11.5 mph - N/A   Clear
3:35 PM 52.9 °F - 28.4 °F 39% 30.04 in 10.0 mi WNW 9.2 mph - N/A   Clear
3:55 PM 52.7 °F - 28.0 °F 39% 30.03 in 10.0 mi NNW 4.6 mph - N/A   Clear
4:15 PM 54.0 °F - 28.4 °F 37% 30.01 in 10.0 mi NW 10.4 mph - N/A   Clear
4:35 PM 53.8 °F - 28.4 °F 38% 30.02 in 10.0 mi NW 3.5 mph - N/A   Clear
4:55 PM 54.5 °F - 28.2 °F 36% 30.04 in 10.0 mi SSW 3.5 mph - N/A   Clear
5:15 PM 54.7 °F - 28.4 °F 36% 30.04 in 10.0 mi SW 3.5 mph - N/A   Clear
5:35 PM 54.3 °F - 28.4 °F 37% 30.05 in 10.0 mi Calm Calm - N/A   Mostly Cloudy
5:55 PM 54.1 °F - 28.8 °F 38% 30.08 in 10.0 mi West 4.6 mph - N/A   Overcast
6:15 PM 54.0 °F - 29.7 °F 39% 30.09 in 10.0 mi SW 6.9 mph - N/A   Overcast
6:35 PM 53.6 °F - 29.5 °F 40% 30.09 in 10.0 mi West 3.5 mph - N/A   Mostly Cloudy
6:55 PM 52.2 °F - 30.6 °F 44% 30.08 in 10.0 mi NW 3.5 mph - N/A   Mostly Cloudy
7:15 PM 50.9 °F - 32.0 °F 48% 30.08 in 10.0 mi Calm Calm - N/A   Mostly Cloudy
7:35 PM 50.2 °F - 31.6 °F 49% 30.06 in - North 4.6 mph - N/A   Unknown
7:55 PM 49.3 °F - 31.1 °F 50% 30.06 in 10.0 mi NNE 5.8 mph - N/A   Scattered Clouds
8:15 PM 49.6 °F - 31.1 °F 49% 30.07 in 10.0 mi North 4.6 mph - N/A   Mostly Cloudy
8:35 PM 49.3 °F - 32.0 °F 51% 30.06 in 10.0 mi NNE 4.6 mph - N/A   Unknown
8:55 PM 48.9 °F - 32.0 °F 52% 30.07 in 10.0 mi NNE 5.8 mph - N/A   Mostly Cloudy
9:15 PM 47.8 °F - 32.9 °F 56% 30.08 in 10.0 mi Calm Calm - N/A   Overcast
9:35 PM 47.8 °F - 33.1 °F 57% 30.08 in 10.0 mi Calm Calm - N/A   Overcast
9:55 PM 47.5 °F - 34.9 °F 62% 30.07 in 10.0 mi East 6.9 mph - N/A   Overcast
10:15 PM 47.5 °F - 34.7 °F 61% 30.08 in 7.0 mi East 4.6 mph - N/A Rain Rain
10:35 PM 45.1 °F - 39.0 °F 79% 30.10 in 10.0 mi Calm Calm - 0.01 in Rain Rain
10:55 PM 44.1 °F 41.5 °F 39.6 °F 84% 30.08 in 10.0 mi NNE 4.6 mph - 0.04 in Rain Light Rain
11:15 PM 43.9 °F 40.5 °F 38.8 °F 82% 30.06 in 10.0 mi ENE 5.8 mph - 0.01 in Rain Light Rain
11:35 PM 44.1 °F - 39.0 °F 82% 30.08 in 10.0 mi Calm Calm - 0.02 in Rain Light Rain
11:55 PM 43.5 °F 39.4 °F 38.8 °F 84% 30.06 in 7.0 mi ENE 6.9 mph - 0.05 in Rain Rain